Regional Weather Roundup
Issued by NWS

Home | Current Version | Previous Version | Text Only | Print | Product List | Glossary On
Versions: 1 2 3 4 5 6 7 8 9 10 11 12 13 14 15 16 17 18 19 20 21 22 23 24 25 26 27 28 29 30 31 32 33 34 35 36 37 38 39 40 41 42 43 44 45 46 47 48 49 50
000
ASUS43 KOAX 190710
RWRNE

WEATHER ROUNDUP FOR NEBRASKA
NATIONAL WEATHER SERVICE OMAHA NE
200 AM CDT SUN APR 19 2015

NOTES: SATELLITE DATA IS BEING USED TO AUGMENT CLOUD COVER ABOVE
       12000 FEET.
       "FAIR" INDICATES FEW OR NO CLOUDS BELOW 12,000 FEET WITH NO
       SIGNIFICANT WEATHER AND/OR OBSTRUCTIONS TO VISIBILITY.

  * THESE STATIONS DO NOT REPORT WEATHER SUCH AS RAIN...SNOW OR FOG.

NEZ001>004-019>022-054>056-190800-
NEBRASKA PANHANDLE

CITY           SKY/WX    TMP DP  RH WIND       PRES   REMARKS
SCOTTSBLUFF    CLOUDY    47 N/A N/A N21G26    29.99R
ALLIANCE       CLOUDY    44  41  89 N23G36    29.95R
CHADRON        LGT RAIN  44  41  89 N13G23    30.01R
KIMBALL        CLOUDY    42  40  92 N23G35    29.96R
SIDNEY         CLOUDY    44  40  85 N21       29.94R
$$

NEZ057>060-069>072-079>082-190800-
SOUTHWEST NEBRASKA

CITY           SKY/WX    TMP DP  RH WIND       PRES   REMARKS
NORTH PLATTE   LGT RAIN  49  47  93 NW12      29.85F
IMPERIAL       LGT RAIN  48  45  89 N13       29.88R
LEXINGTON      CLOUDY    52  48  87 W9        29.83R
MCCOOK         CLOUDY    53  46  77 N16       29.83R
OGALLALA       DRIZZLE   48  46  92 N10       29.89S
$$

NEZ005>010-023>029-035>040-094-190800-
NORTH CENTRAL NEBRASKA

CITY           SKY/WX    TMP DP  RH WIND       PRES   REMARKS
VALENTINE      CLOUDY    48  44  86 NW17G28   29.86F
AINSWORTH      CLOUDY    49  46  87 NW15G22   29.85R
BROKEN BOW     CLOUDY    53  48  83 N24G30    29.80R
O`NEILL        CLOUDY    55  55  99 NW7       29.82R FOG
ORD            CLOUDY    51  46  83 NW6       29.80S
THEDFORD       CLOUDY    49  47  94 NW8       29.87R
$$

NEZ041-046>049-061>064-073>077-083>087-190800-
SOUTH CENTRAL NEBRASKA

CITY           SKY/WX    TMP DP  RH WIND       PRES   REMARKS
GRAND ISLAND   CLOUDY    54  46  74 NW12      29.81R
AURORA         DRIZZLE   53  51  94 NW10      29.78F
HASTINGS       CLOUDY    52  49  89 W5        29.77F
HEBRON         CLOUDY    53  49  87 SW3       29.76F
HOLDREGE       CLOUDY    52  47  83 W9        29.79F
KEARNEY *      CLOUDY    54  46  76 N9        29.82R
YORK           CLOUDY    54  50  87 CALM      29.79R
$$

NEZ011>018-030>034-042>045-190800-
NORTHEAST NEBRASKA

CITY           SKY/WX    TMP DP  RH WIND       PRES   REMARKS
ALBION         MOCLDY    54  48  78 W8        29.80S
BLAIR          CLOUDY    56  55  94 SE6       29.78F FOG
COLUMBUS *     CLOUDY    55  45  67 W8        29.81R
FREMONT        CLOUDY    56  55  94 CALM      29.78F FOG
TEKAMAH        CLOUDY    56  55  97 S5        29.78F
WAYNE          MOCLDY    54  53  97 SE5       29.77F FOG
$$

NEZ050>053-065>068-078-088>093-190800-
SOUTHEAST NEBRASKA

CITY           SKY/WX    TMP DP  RH WIND       PRES   REMARKS
LINCOLN        CLOUDY    56  51  84 E3        29.78F
OMAHA EPPLEY   CLOUDY    58  57  97 S5        29.78F
BEATRICE       CLOUDY    55  52  90 E6        29.75F
FALLS CITY     MOCLDY    56  54  93 CALM      29.77F
NEBRASKA CITY  FOG       56  56 100 CALM      29.78F VSB 1/4
PLATTSMOUTH    FOG       56  55  95 CALM      29.79F VSB 3/4
$$

NEZ044-045-051>053-067-190800-
OMAHA AREA

CITY           SKY/WX    TMP DP  RH WIND       PRES   REMARKS
OMAHA EPPLEY   CLOUDY    58  57  97 S5        29.78F
BLAIR          CLOUDY    56  55  94 SE6       29.78F FOG
FREMONT        CLOUDY    56  55  94 CALM      29.78F FOG
MILLARD        CLOUDY    57  55  94 CALM      29.78F
OFFUTT AFB     CLOUDY    57  55  94 SE3       29.78S
PLATTSMOUTH    FOG       56  55  95 CALM      29.79F VSB 3/4
WAHOO          FOG       55  52  92 CALM      29.78F VSB 1/4
$$



USA.gov is the U.S. government's official web portal to all federal, state and local government web resources and services.